Location: Newark
(25.4297°S, 49.2719°W)
Time: 00:24:02
(UTC+00:00)

Vanguard 1 Rocket - Pass Details

Date: 25 November 2019
Orbit: 650 x 4226 km, 34.3° (Epoch: 06 December)

Event Time Altitude Azimuth Distance (km) Brightness Sun altitude
Rises 01:15:21 0° 253° (WSW) 8,027 12.8 -36.9°
Reaches altitude 10° 01:23:29 10° 265° (W) 6,446 12.0 -37.9°
Maximum altitude 01:35:34 21° 305° (NW) 4,436 10.7 -39.2°
Enters shadow 01:37:52 20° 316° (NW) 4,234 10.5 -39.4°
Drops below altitude 10° 01:43:55 10° 348° (NNW) 4,252 - -40.0°
Sets 01:47:50 0° 5° (N) 4,727 - -40.3°
